#timestamp,LO_Frequency,Hit,StdDev 
1558486815.8,286046998.7,N
1558486835.6,286047001.2,N
1558486855.5,286046998.2,N
1558486875.3,286046998.7,N
1558486895.1,286046998.1,N
1558486915.9,286046998.2,N
1558486935.7,286046998.1,N
1558486955.6,286047000.9,N
1558486975.4,286047001.1,N
1558486995.2,286046999.0,N
1558487015.1,286046998.5,N
1558487016.0,286046998.5,N
1558487035.8,286047001.1,N
1558487055.7,286047001.0,N
1558487075.5,286047001.0,N
1558487095.3,286047001.0,N
1558487115.2,286046999.5,N
1558487135.9,286046994.2,Y
1558487155.7,286046990.4,P
1558487175.6,286046988.0,N
1558487195.4,286046984.0,P
1558487215.3,286046981.7,Y
1558487235.1,286046989.2,P
1558487236.0,286046989.2,P
1558487255.8,286046985.4,P
1558487275.7,286046984.1,Y
1558487295.5,286046993.4,P
1558487315.3,286046993.3,N
1558487335.2,286046992.0,P
1558487355.0,286046991.2,Y
1558487355.9,286046991.2,P
1558487375.8,286046997.1,P
1558487395.6,286046997.1,N
1558487415.4,286046999.2,N
1558487435.3,286046994.9,N
1558487455.1,286046997.4,N
1558487475.9,286046997.5,N
1558487495.7,286046996.1,N
1558487515.5,286046993.7,N
1558487535.4,286046992.0,Y
1558487555.2,286046996.5,P
1558487575.0,286046995.5,P
1558487575.9,286046995.5,P
1558487595.8,286046995.7,Y
1558487615.6,286047000.3,P
1558487635.5,286047001.2,N
1558487655.3,286047001.8,N
1558487675.1,286047002.9,N
1558487695.9,286047006.5,N
1558487715.7,286047010.6,Y
1558487735.6,286047010.8,P
1558487755.4,286047012.4,N
1558487775.2,286047011.1,N
1558487795.1,286047013.4,Y
1558487796.0,286047013.4,P
1558487815.8,286047006.9,P
1558487835.6,286047007.0,N
1558487855.5,286047006.8,N
1558487875.3,286047007.8,Y
1558487895.2,286047002.5,P
1558487915.9,286047002.1,N
1558487935.7,286047005.5,N
1558487955.6,286047005.2,N
1558487975.4,286047006.7,N
1558487995.2,286047006.3,N
1558488015.1,286047006.8,Y
1558488016.0,286047006.8,P
1558488035.8,286047003.8,P
1558488055.7,286047004.3,P
1558488075.5,286047002.9,N
1558488095.3,286047003.4,N
1558488115.2,286047005.1,Y
1558488135.0,286047000.0,P
1558488135.9,286047000.0,N
1558488155.8,286046999.7,N
1558488175.6,286047000.0,N
1558488195.4,286047002.6,N
1558488215.3,286047004.2,N
1558488235.1,286047003.8,N
1558488255.8,286047003.2,N
1558488275.7,286047003.5,N
1558488295.5,286047004.2,N
1558488315.4,286047005.9,Y
1558488335.2,286047001.3,P
1558488355.0,286047002.4,P
1558488355.9,286047002.4,P
1558488375.8,286047000.0,N
1558488395.6,286047000.4,N
1558488415.4,286047002.3,N
1558488435.3,286047004.4,Y
1558488455.1,286046999.9,P
1558488475.9,286046999.8,N
1558488495.7,286047001.1,N
1558488515.5,286047000.3,N
1558488535.4,286047000.5,N
1558488555.2,286046999.9,N
1558488575.0,286047001.0,N
1558488575.9,286047001.0,N
1558488595.8,286047000.8,N
1558488615.6,286046998.2,Y
1558488635.5,286046998.9,P
1558488655.3,286046998.8,N
1558488675.1,286046998.1,N
1558488695.9,286046998.4,N
1558488715.7,286046999.3,N
1558488735.6,286046998.5,N
1558488755.4,286047001.0,N
1558488775.2,286047000.7,N
1558488795.1,286047000.1,N
1558488796.0,286047000.1,N
1558488815.8,286047000.8,N
1558488835.6,286047000.0,N
1558488855.5,286047000.2,N
1558488875.3,286046999.7,N
1558488895.2,286046999.7,N
1558488915.9,286047000.4,N
1558488935.7,286047000.8,N
1558488955.6,286047000.9,N
1558488975.4,286047000.6,N
1558488995.2,286047001.0,N
1558489015.1,286047001.2,N
1558489016.0,286047001.2,N
1558489035.8,286047000.0,N
1558489055.7,286047000.3,N
1558489075.5,286047002.4,N
1558489095.3,286047003.9,Y
1558489115.2,286047002.2,P
1558489135.0,286047002.3,N
1558489135.9,286047002.3,N
1558489155.8,286047002.7,N
1558489175.6,286047002.3,N
1558489195.4,286047002.7,Y
1558489215.3,286047000.9,P
1558489235.1,286047000.5,N
1558489255.9,286047000.0,N
1558489275.7,286047000.0,N
1558489295.5,286047000.6,N
1558489315.4,286046998.5,N
1558489335.2,286046998.5,N
1558489355.0,286047000.7,N
1558489355.9,286047000.7,N
1558489375.8,286047000.2,N
1558489395.6,286047000.2,N
1558489415.5,286047000.9,N
1558489435.3,286046998.6,N
1558489455.1,286046996.5,Y
1558489475.9,286046996.5,P
1558489495.7,286046998.1,N
1558489515.6,286046998.9,N
1558489535.4,286046996.5,N
1558489555.2,286046998.9,N
1558489575.1,286046998.4,N
1558489576.0,286046998.4,N
1558489595.8,286046999.4,N
1558489615.6,286046999.5,N
1558489635.5,286046998.8,N
1558489655.3,286046996.5,Y
1558489675.2,286047001.2,P
1558489695.9,286047000.6,N
1558489715.7,286046997.4,N
1558489735.6,286046993.4,Y
1558489755.4,286046992.5,P
1558489775.3,286046989.2,P
1558489795.1,286046987.5,N
1558489796.0,286046987.5,N
1558489815.8,286046986.4,Y
1558489835.7,286046991.0,P
1558489855.5,286046989.1,P
1558489875.3,286046990.0,P
1558489895.2,286046985.4,Y
1558489915.0,286046997.4,P
1558489915.9,286046997.4,N
1558489935.8,286046993.5,N
1558489955.6,286046990.2,Y
1558489975.4,286046998.0,P
1558489995.3,286046995.4,N
1558490015.1,286046998.0,N
1558490035.9,286046995.0,Y
1558490055.7,286046996.9,P
1558490075.5,286046995.5,P
1558490095.4,286046997.1,P
1558490115.2,286046998.0,Y
1558490135.0,286047001.1,P
1558490135.9,286047001.1,N
1558490155.8,286046996.8,N
1558490175.6,286046997.7,N
1558490195.5,286046999.5,N
1558490215.3,286046999.0,N
1558490235.1,286046998.4,N
1558490255.9,286047002.1,N
1558490275.7,286047005.7,Y
1558490295.5,286047008.9,P
1558490315.4,286047010.7,N
1558490335.2,286047012.2,N
1558490355.1,286047013.2,N
1558490356.0,286047013.2,N
1558490375.8,286047017.1,Y
1558490395.6,286047009.0,P
